OAO 3 (COPERNICUS)

Last updated on Thu Nov 21 2024 00:02:11 GMT+0000 (Coordinated Universal Time)

1 06153U 72065A 24325.44778150 .00000800 00000+0 17089-3 0 9992 2 06153 35.0044 118.0699 0007137 246.4034 146.5771 14.59348079776863
UTC large
Height (km)
Speed (km/s)
/
Latitude / Longitude
Inclination (degrees)
Orbital Period (minutes)
Azimuth
Elevation
Range (km)
Doppler Factor

Next 0 passes for location: London (51.5072 / 0.1276)

Sorry there are no passes over London.